Weather History for New River MCAS, NC

Change the Weather History Date:

Monday, September 24, 2012

  Actual Average Record
Temperature  
Mean Temperature 64 °F -  
Max Temperature 75 °F 78 °F 90 °F (2005)
Min Temperature 53 °F 61 °F 48 °F (1999)
Degree Days  
Heating Degree Days 1    
Growing Degree Days 14 (Base 50)    
Moisture  
Dew Point 50 °F    
Average Humidity 61    
Maximum Humidity 93    
Minimum Humidity 36    
Precipitation  
Precipitation 0.01 in - - ()
Sea Level Pressure  
Sea Level Pressure 30.18 in    
Wind  
Wind Speed 6 mph (NE)    
Max Wind Speed 10 mph    
Max Gust Speed -    
Visibility 10 miles    
Events      
Averages and records for this station are not official NWS values.
T = Trace of Precipitation, MM = Missing Value Source: NWS Daily Summary

Daily Weather History Graph

Daily Weather History Graph

Search for Another Location

Airport:

Trip Planner

Search our weather history database for the weather conditions in past years. The results will help you decide how hot, cold, wet, or windy it might be!

Date:

Astronomy

Sep. 24, 2012 Rise Set
Actual Time 6:59 AM EDT 7:03 PM EDT
Civil Twilight 6:34 AM EDT 7:28 PM EDT
Nautical Twilight 6:05 AM EDT 7:57 PM EDT
Astronomical Twilight 5:35 AM EDT 8:27 PM EDT
Moon 3:36 PM EDT (9/24) 1:25 AM EDT (9/24)
Length of Visible Light 12h 53m
Length of Day
12h 03m
Waxing Gibbous, 70% of the Moon is Illuminated
Sep 24
Waxing Gibbous
Sep 29
Full
Oct 8
Last Quarter
Oct 15
New
Oct 21
First Quarter

Hourly Weather History & Observations

Time (EDT) Temp. Dew Point Humidity Pressure Visibility Wind Dir Wind Speed Gust Speed Precip Events Conditions
12:56 AM 61.0 °F 55.0 °F 81% 30.12 in 10.0 mi NE 6.9 mph - N/A   Clear
1:56 AM 61.0 °F 55.0 °F 81% 30.13 in 10.0 mi ENE 5.8 mph - N/A   Clear
2:56 AM 57.9 °F 54.0 °F 87% 30.12 in 10.0 mi NNE 3.5 mph - N/A   Clear
3:56 AM 57.9 °F 54.0 °F 87% 30.12 in 10.0 mi North 3.5 mph - N/A   Clear
5:56 AM 57.0 °F 52.0 °F 83% 30.14 in 10.0 mi North 3.5 mph - N/A   Clear
6:56 AM 53.1 °F 51.1 °F 93% 30.16 in 10.0 mi Calm Calm - N/A   Clear
7:56 AM 57.9 °F 52.0 °F 81% 30.17 in 10.0 mi North 3.5 mph - 0.01 in   Clear
9:56 AM 66.9 °F 52.0 °F 59% 30.20 in 10.0 mi NNE 9.2 mph - N/A   Clear
10:56 AM 70.0 °F 51.1 °F 51% 30.20 in 10.0 mi NE 10.4 mph - N/A   Clear
11:56 AM 73.0 °F 48.0 °F 41% 30.20 in 10.0 mi NE 10.4 mph - N/A   Clear
12:56 PM 73.9 °F 46.9 °F 38% 30.20 in 10.0 mi NE 8.1 mph - N/A   Clear
1:56 PM 75.0 °F 46.9 °F 37% 30.19 in 10.0 mi Variable 3.5 mph - N/A   Clear
2:56 PM 75.0 °F 46.0 °F 36% 30.18 in 10.0 mi ENE 6.9 mph - N/A   Clear
3:56 PM 75.0 °F 46.0 °F 36% 30.17 in 10.0 mi NE 8.1 mph - N/A   Partly Cloudy
5:56 PM 73.0 °F 45.0 °F 37% 30.17 in 10.0 mi NE 6.9 mph - N/A   Clear
6:56 PM 68.0 °F 48.0 °F 49% 30.18 in 10.0 mi NNE 5.8 mph - N/A   Clear
7:56 PM 64.9 °F 50.0 °F 58% 30.19 in 10.0 mi Calm Calm - N/A   Clear
8:56 PM 64.0 °F 51.1 °F 63% 30.21 in 10.0 mi East 8.1 mph - N/A   Clear
9:56 PM 63.0 °F 50.0 °F 63% 30.22 in 10.0 mi East 6.9 mph - N/A   Clear
10:56 PM 64.0 °F 50.0 °F 60% 30.22 in 10.0 mi East 6.9 mph - N/A   Clear
11:56 PM 62.1 °F 50.0 °F 65% 30.22 in 10.0 mi East 5.8 mph - N/A   Clear